• En España
  • Lista de países
  • Para 7 días
  • Temperatura del agua
  • Mapa Satelital
  • El tiempo en el mapa
  • Informadores
  • user-avatar
    Iniciar sesión

    Tiempo cada hora Debki

    Hoy, 24 Junio, Domingo

    Tiempo Temperatura Precipitaciones Viento Presión Humedad
    00:00 +12°C° 0,2 mm 3 mps 759 mmHg 80%
    01:00 +12°C° 0,2 mm 3 mps 759 mmHg 82%
    02:00 +12°C° 0,4 mm 3 mps 759 mmHg 85%
    03:00 +12°C° 0,4 mm 3 mps 759 mmHg 87%
    04:00 +12°C° 0,4 mm 3 mps 759 mmHg 90%
    05:00 +13°C° 0,2 mm 3 mps 759 mmHg 88%
    06:00 +13°C° 0,2 mm 3 mps 759 mmHg 85%
    07:00 +14°C° 0,2 mm 3 mps 759 mmHg 82%
    08:00 +15°C° 0 mm 4 mps 759 mmHg 74%
    09:00 +17°C° 0 mm 4 mps 759 mmHg 65%
    10:00 +18°C° 0 mm 4 mps 760 mmHg 57%
    11:00 +19°C° 0 mm 4 mps 760 mmHg 54%
    12:00 +19°C° 0 mm 4 mps 760 mmHg 51%
    13:00 +20°C° 0 mm 4 mps 760 mmHg 49%
    14:00 +20°C° 0 mm 4 mps 760 mmHg 49%
    15:00 +19°C° 0 mm 4 mps 760 mmHg 49%
    16:00 +19°C° 0 mm 4 mps 760 mmHg 50%
    17:00 +18°C° 0 mm 4 mps 760 mmHg 55%
    18:00 +18°C° 0 mm 4 mps 760 mmHg 60%
    19:00 +17°C° 0 mm 4 mps 760 mmHg 65%
    20:00 +15°C° 0 mm 4 mps 760 mmHg 69%
    21:00 +14°C° 0 mm 4 mps 760 mmHg 73%
    22:00 +13°C° 0 mm 4 mps 761 mmHg 77%
    23:00 +13°C° 0 mm 4 mps 760 mmHg 79%

    Mañana, 25 Junio, Lunes

    Tiempo Temperatura Precipitaciones Viento Presión Humedad
    00:00 +13°C° 0 mm 4 mps 760 mmHg 80%
    01:00 +13°C° 0 mm 4 mps 760 mmHg 81%
    02:00 +12°C° 0 mm 4 mps 760 mmHg 83%
    03:00 +12°C° 0 mm 3 mps 760 mmHg 85%
    04:00 +12°C° 0 mm 3 mps 760 mmHg 87%
    05:00 +14°C° 0 mm 4 mps 760 mmHg 81%
    06:00 +17°C° 0 mm 4 mps 760 mmHg 74%
    07:00 +17°C° 0 mm 5 mps 760 mmHg 67%
    08:00 +20°C° 0 mm 5 mps 761 mmHg 60%
    09:00 +21°C° 0 mm 5 mps 761 mmHg 54%
    10:00 +22°C° 0 mm 5 mps 761 mmHg 47%
    11:00 +22°C° 0 mm 5 mps 761 mmHg 45%
    12:00 +22°C° 0 mm 5 mps 761 mmHg 44%
    13:00 +22°C° 0 mm 6 mps 761 mmHg 42%
    14:00 +22°C° 0 mm 6 mps 761 mmHg 42%
    15:00 +22°C° 0 mm 6 mps 762 mmHg 43%
    16:00 +22°C° 0 mm 6 mps 762 mmHg 43%
    17:00 +21°C° 0 mm 6 mps 762 mmHg 49%
    18:00 +20°C° 0 mm 6 mps 762 mmHg 55%
    19:00 +19°C° 0 mm 5 mps 762 mmHg 61%
    20:00 +17°C° 0 mm 5 mps 762 mmHg 69%
    21:00 +15°C° 0 mm 5 mps 763 mmHg 78%
    22:00 +14°C° 0 mm 5 mps 763 mmHg 86%
    23:00 +14°C° 0 mm 5 mps 763 mmHg 88%

    Pasado mañana, 26 Junio, Martes

    Tiempo Temperatura Precipitaciones Viento Presión Humedad
    00:00 +14°C° 0 mm 5 mps 763 mmHg 90%
    01:00 +14°C° 0 mm 5 mps 763 mmHg 93%
    02:00 +14°C° 0 mm 4 mps 763 mmHg 92%
    03:00 +13°C° 0 mm 4 mps 763 mmHg 91%
    04:00 +13°C° 0 mm 4 mps 763 mmHg 91%
    05:00 +14°C° 0 mm 4 mps 764 mmHg 84%
    06:00 +17°C° 0 mm 4 mps 764 mmHg 77%
    07:00 +18°C° 0 mm 4 mps 764 mmHg 70%
    08:00 +19°C° 0 mm 4 mps 764 mmHg 64%
    09:00 +20°C° 0 mm 4 mps 765 mmHg 58%
    10:00 +21°C° 0 mm 4 mps 765 mmHg 52%
    11:00 +21°C° 0 mm 4 mps 765 mmHg 52%
    12:00 +22°C° 0 mm 4 mps 765 mmHg 52%
    13:00 +22°C° 0 mm 5 mps 765 mmHg 51%
    14:00 +21°C° 0 mm 5 mps 765 mmHg 53%
    15:00 +21°C° 0 mm 5 mps 765 mmHg 55%
    16:00 +20°C° 0 mm 5 mps 765 mmHg 57%
    17:00 +19°C° 0 mm 5 mps 765 mmHg 62%
    18:00 +17°C° 0 mm 5 mps 765 mmHg 67%
    19:00 +16°C° 0 mm 5 mps 765 mmHg 71%
    20:00 +15°C° 0 mm 5 mps 765 mmHg 78%
    21:00 +14°C° 0 mm 4 mps 766 mmHg 85%
    22:00 +13°C° 0 mm 4 mps 766 mmHg 91%
    23:00 +12°C° 0 mm 4 mps 766 mmHg 92%

    27 Junio, Miércoles

    Tiempo Temperatura Precipitaciones Viento Presión Humedad
    00:00 +12°C° 0 mm 5 mps 766 mmHg 93%
    01:00 +12°C° 0 mm 5 mps 766 mmHg 94%
    02:00 +12°C° 0 mm 5 mps 766 mmHg 94%
    03:00 +13°C° 0 mm 5 mps 766 mmHg 94%
    04:00 +13°C° 0 mm 5 mps 766 mmHg 94%
    05:00 +14°C° 0 mm 5 mps 766 mmHg 87%
    06:00 +16°C° 0 mm 6 mps 766 mmHg 79%
    07:00 +19°C° 0 mm 6 mps 766 mmHg 71%
    08:00 +19°C° 0 mm 6 mps 766 mmHg 68%
    09:00 +20°C° 0 mm 7 mps 767 mmHg 64%
    10:00 +21°C° 0 mm 7 mps 767 mmHg 60%
    11:00 +21°C° 0 mm 7 mps 767 mmHg 59%
    12:00 +22°C° 0 mm 7 mps 767 mmHg 58%
    13:00 +22°C° 0 mm 7 mps 767 mmHg 56%
    14:00 +22°C° 0 mm 7 mps 767 mmHg 58%
    15:00 +22°C° 0 mm 7 mps 767 mmHg 59%
    16:00 +22°C° 0 mm 8 mps 767 mmHg 60%
    17:00 +21°C° 0 mm 7 mps 767 mmHg 65%
    18:00 +20°C° 0 mm 7 mps 767 mmHg 69%
    19:00 +18°C° 0 mm 7 mps 767 mmHg 74%
    20:00 +17°C° 0 mm 7 mps 767 mmHg 80%
    21:00 +16°C° 0 mm 6 mps 767 mmHg 85%
    22:00 +15°C° 0 mm 6 mps 767 mmHg 90%
    23:00 +15°C° 0 mm 6 mps 767 mmHg 91%

    28 Junio, Jueves

    Tiempo Temperatura Precipitaciones Viento Presión Humedad
    00:00 +15°C° 0 mm 6 mps 767 mmHg 92%
    01:00 +15°C° 0 mm 5 mps 767 mmHg 94%
    02:00 +16°C° 0 mm 5 mps 767 mmHg 93%
    03:00 +16°C° 0 mm 5 mps 766 mmHg 92%
    04:00 +16°C° 0 mm 5 mps 766 mmHg 91%
    05:00 +17°C° 0 mm 6 mps 766 mmHg 86%
    06:00 +19°C° 0 mm 6 mps 766 mmHg 81%
    07:00 +20°C° 0 mm 7 mps 765 mmHg 76%
    08:00 +20°C° 0,1 mm 7 mps 765 mmHg 76%
    09:00 +20°C° 0,1 mm 7 mps 765 mmHg 76%
    10:00 +21°C° 0,1 mm 8 mps 765 mmHg 76%
    11:00 +20°C° 0,3 mm 8 mps 764 mmHg 80%
    12:00 +20°C° 0,3 mm 8 mps 764 mmHg 83%
    13:00 +20°C° 0,3 mm 8 mps 763 mmHg 87%
    14:00 +20°C° 0,3 mm 8 mps 763 mmHg 87%
    15:00 +19°C° 0,3 mm 9 mps 762 mmHg 87%
    16:00 +19°C° 0,3 mm 9 mps 762 mmHg 87%
    17:00 +19°C° 0,4 mm 9 mps 761 mmHg 87%
    18:00 +18°C° 0,4 mm 9 mps 761 mmHg 88%
    19:00 +18°C° 0,4 mm 9 mps 760 mmHg 88%
    20:00 +18°C° 0,2 mm 9 mps 760 mmHg 87%
    21:00 +18°C° 0,2 mm 9 mps 760 mmHg 87%
    22:00 +19°C° 0,2 mm 9 mps 759 mmHg 87%
    23:00 +18°C° 0,6 mm 9 mps 759 mmHg 89%

    29 Junio, Viernes

    Tiempo Temperatura Precipitaciones Viento Presión Humedad
    00:00 +18°C° 0,6 mm 9 mps 758 mmHg 91%
    01:00 +18°C° 0,6 mm 9 mps 758 mmHg 93%
    02:00 +18°C° 0,9 mm 8 mps 757 mmHg 94%
    03:00 +17°C° 0,9 mm 7 mps 757 mmHg 95%
    04:00 +17°C° 0,9 mm 7 mps 756 mmHg 96%
    05:00 +17°C° 1 mm 7 mps 756 mmHg 96%
    06:00 +19°C° 1 mm 6 mps 756 mmHg 96%
    07:00 +19°C° 1 mm 6 mps 756 mmHg 96%
    08:00 +19°C° 0,5 mm 6 mps 755 mmHg 95%
    09:00 +20°C° 0,5 mm 6 mps 755 mmHg 93%
    10:00 +21°C° 0,5 mm 6 mps 755 mmHg 92%
    11:00 +21°C° 0,2 mm 5 mps 755 mmHg 90%
    12:00 +21°C° 0,2 mm 5 mps 755 mmHg 89%
    13:00 +22°C° 0,2 mm 4 mps 755 mmHg 87%
    14:00 +22°C° 0,4 mm 4 mps 755 mmHg 84%
    15:00 +23°C° 0,4 mm 5 mps 755 mmHg 81%
    16:00 +23°C° 0,4 mm 5 mps 755 mmHg 78%
    17:00 +23°C° 0,3 mm 5 mps 755 mmHg 81%
    18:00 +22°C° 0,3 mm 4 mps 755 mmHg 84%
    19:00 +21°C° 0,3 mm 4 mps 755 mmHg 87%
    20:00 +20°C° 0,5 mm 5 mps 756 mmHg 89%
    21:00 +19°C° 0,5 mm 5 mps 756 mmHg 92%
    22:00 +17°C° 0,5 mm 5 mps 756 mmHg 95%
    23:00 +17°C° 0,5 mm 6 mps 756 mmHg 94%
    Mostrar más